STARLINK-11152, 60194

Orbit data source: Space-Track

STARLINK-11152, 60194 is a payload satellite owned by SpaceX/Seattle (US) in LEO that was launched on Wed, 03 Jul 2024 UTC via an FALCON 9 launch vehicle from the Air Force Eastern Test Range (AFETR). Payload-class satellites include a variety of spacecraft equipped with specific instruments for various scientific and technological missions. These include communications satellites like Starlink; space stations such as the ISS; scientific satellites like the Hubble; Earth observation satellites from companies like Planet Labs, Umbra, and HawkEye 360; GPS; miniature CubeSats for education and research; and military/defense satellites.

Loading next visibility...
Identifier
60194, 2024-124M
Orbit
LEO
Last TLE update
19 hours ago
Origin
Manufacturer
SpaceX/Seattle
Mission
Operational Commercial Communications
Bus & Motor
STARLINK V2M, Unknown motor
Mass
730 kg wet, ~700 kg dry
Launch date (UTC)
2024-07-03 (10 months ago)
Launch vehicle
FALCON 9
Launch site
Air Force Eastern Test Range (AFETR)
Object type
Payload
Rocket body
Debris
Shape & HBR
Box + 2 Pan, 29 m
Radar Cross Section
36.964 m², Large (>1 m²)

Expand to show TLE details & history

TLE from 19 hours ago
0 STARLINK-11152
1 60194U 24124M   25128.52251548  .00002390  00000-0  24582-4 0  9992
2 60194  53.1600 225.6491 0001257 105.2677 254.8480 15.69712382 49793
Epoch: 2025-05-08T12:32Z
Definitive object data (Epoch: 2025-05-08T12:32:25.337Z)
Latitude
-0.00002°
Longitude
170.95172°
Altitude
360.856 km
Speed
7.694 km/s
True Right ascension
15h 02m 35s
True Declination
0° 00' 00"
Sunlit
Object was in full shadow at TLE epoch
Visualization TLE readout
Latitude
40.89062°
Longitude
-152.68946°
Altitude
362.97 km
Speed
7.697 km/s
Apparent Right ascension
22h 06m 02s
Apparent Declination
6° 23' 10"
Sunlit
Object is in full shadow
Visualization observer readout
Local Sidereal Time
15:15:27
Azimuth
76.942° E
Elevation
-5.48°
Doppler factor
1
Orbital elements
Apogee altitude
360.828 km
Perigee altitude
359.134 km
Semi-major axis
6,738.118 km
Eccentricity
0.0001257
Inclination
53.16°
RAAN
225.6491°
Arg. of periapsis
105.2677°
True anomaly
254.8341°
Mean anomaly
254.848°
Eccentric anomaly
254.84105°
Mean motion
3.92406 °/min
BSTAR
0.000024582
Orbital period
91.74 mins
Loading maneuver chart data...
Loading SW <> Apogee altitude chart data...
Loading historical data...
Loading historical data...
Loading historical data...
Loading historical data...
Loading historical data...
Loading historical data...
Loading historical data...

STARLINK-11152 Visibility forecast

Observer location: undefined°, undefined°

Span
Click to sort rows by Start time (UTC) header in descending order
Start Az.
Max El. time (UTC)
Max El. Az.
Max El.
End time (UTC)
End Az.
4 mins2025-05-09 08:34:31.010Z194.189° SSW2025-05-09 08:36:31.010Z137.408° SSE28.442°2025-05-09 08:38:31.010Z75.385° E
|